Wind_Speed
8 7 8 5 4 4 5 7 9 13 16 19 21 24 26 28 30 31 32 32 32 32 32 32 33 34 36 37 37 38 41 40 40 41 42 46 47 57 54 57 51 46 47 56 44
9 8 8 7 5 4 4 5 7 9 10 12 14 16 19 22 25 28 30 31 32 32 33 33 33 32 34 36 39 42 43 40 38 38 38 34 35 54 55 55 58 62 51 48 47
10 8 7 6 5 4 4 5 6 7 9 10 13 15 18 21 25 25 28 30 32 33 34 34 34 32 35 37 37 41 41 39 40 38 40 40 39 43 51 58 56 61 68 71 49
8 6 5 3 1 0 1 3 4 6 8 11 13 16 19 22 26 26 29 29 29 31 33 34 34 34 34 35 36 40 39 39 40 42 44 45 49 49 47 45 59 61 59 66 56
8 6 5 5 4 3 3 3 4 5 7 9 10 12 14 16 18 20 24 28 29 30 31 33 34 35 34 35 37 38 38 38 40 43 45 48 49 46 51 58 61 62 55 56 54
10 6 4 4 4 4 4 5 7 8 8 9 10 12 14 16 16 16 17 21 26 28 29 32 35 34 35 36 36 37 40 39 40 42 39 47 48 46 48 53 61 65 57 52 56
13 10 7 5 6 7 9 10 11 11 12 14 15 14 14 14 16 17 17 18 19 23 28 30 32 34 36 36 39 37 39 38 40 42 42 45 47 47 43 52 58 70 61 57 53
16 13 9 7 6 6 7 9 11 13 14 16 17 18 17 17 17 17 17 18 17 18 22 25 29 32 34 36 37 36 37 38 36 39 42 46 43 43 45 48 55 68 61 59 58
19 14 12 9 8 6 5 5 6 8 11 12 15 16 16 17 17 18 18 18 18 18 19 20 25 28 31 32 35 36 36 36 32 42 42 40 42 39 40 48 52 61 58 60 52
21 20 19 15 11 6 5 4 5 6 8 8 10 11 13 15 17 18 20 22 22 23 22 21 21 23 26 29 31 18 23 29 35 29 43 36 38 35 36 50 49 51 54 56 55
18 19 18 18 17 15 13 10 9 8 8 8 9 9 10 10 11 13 15 16 19 21 22 23 22 22 22 28 31 35 36 39 35 37 43 43 38 37 36 45 47 45 47 51 55
16 16 17 17 16 16 15 15 14 13 11 12 10 11 11 11 12 12 13 14 15 17 18 21 22 24 27 25 27 28 32 36 38 39 45 45 43 40 40 44 42 41 40 44 49
17 16 16 16 16 16 16 16 16 15 14 12 12 13 11 13 13 15 14 15 16 18 19 20 20 26 26 27 28 29 31 33 36 37 44 43 40 41 39 42 47 43 40 41 43
18 18 17 16 17 17 17 17 17 17 16 13 15 13 15 16 14 16 17 17 18 19 21 21 24 26 27 29 31 32 31 35 39 38 39 31 41 37 37 44 46 44 44 42 44
18 19 20 19 19 18 18 19 18 19 20 17 18 18 19 18 20 18 18 18 19 21 23 20 28 27 27 29 32 35 34 38 36 37 38 36 38 35 29 34 42 41 42 44 45
21 19 19 20 21 21 20 20 21 21 19 20 20 21 21 20 21 24 23 22 22 24 25 23 26 32 31 31 34 34 36 37 37 35 35 33 31 31 19 34 37 38 40 41 43
21 22 20 20 21 22 22 23 23 22 23 24 23 23 24 23 25 26 25 27 27 29 28 27 29 31 34 35 33 35 32 29 27 27 28 26 30 23 18 33 27 35 31 36 39
21 22 22 21 21 22 23 23 23 25 27 26 26 27 27 27 27 26 27 28 28 30 32 30 28 22 31 42 32 25 29 28 29 27 27 21 26 25 28 29 43 38 35 35 35
22 23 22 23 22 23 23 24 23 26 27 29 30 31 29 31 30 31 29 30 29 30 30 31 29 24 39 43 41 30 32 32 40 40 34 36 36 33 43 38 39 34 36 37 37
24 24 23 23 24 24 24 24 28 26 27 30 30 33 32 32 36 31 29 31 30 31 36 37 43 32 31 36 43 37 30 33 33 34 33 33 30 31 33 40 36 40 38 39 41
27 26 26 26 27 24 25 25 26 29 30 30 30 32 34 34 34 32 30 28 36 35 38 42 42 42 32 34 34 30 30 31 30 37 37 30 24 29 33 33 18 24 36 38 39
26 29 28 27 28 28 28 28 26 30 32 31 29 30 32 33 32 31 28 28 35 42 43 39 41 44 35 30 30 35 35 31 34 34 32 33 36 39 24 33 30 30 29 28 37
26 26 27 28 29 30 30 30 30 29 31 30 30 29 28 30 33 27 28 30 37 39 43 45 43 42 37 27 28 40 32 34 32 33 39 37 35 27 36 38 28 29 27 28 30
27 27 26 27 29 29 28 29 29 30 30 31 30 30 29 28 28 31 33 34 42 46 49 45 40 36 35 32 31 38 31 27 28 31 34 32 34 34 36 27 19 27 28 34 31
32 28 27 30 31 29 29 30 28 30 30 31 26 29 28 26 29 32 35 40 43 44 45 40 36 28 27 28 27 30 32 30 41 38 37 32 30 31 35 30 26 32 33 35 30
33 31 28 31 32 32 31 28 30 28 31 29 28 27 27 28 32 34 36 38 41 38 35 29 23 17 14 16 20 25 24 27 31 34 39 36 38 30 25 28 33 31 35 40 36
35 37 33 34 33 32 31 31 31 30 26 27 26 26 26 29 33 34 37 39 36 28 20 15 13 14 14 16 15 19 11 15 19 21 24 27 27 23 27 28 31 44 40 42 41
Wind_Direction
91 97 109 130 143 163 194 212 225 233 237 240 242 244 245 246 247 248 249 250 250 249 249 248 246 242 243 245 249 251 250 248 247 249 248 246 255 249 252 247 221 227 226 235 239
91 88 97 110 130 156 186 207 218 227 233 237 241 245 248 250 251 251 251 250 249 248 250 251 250 248 246 246 248 250 252 252 252 252 251 249 250 259 249 250 244 236 222 233 230
90 91 95 102 117 152 183 205 221 232 241 250 255 257 259 260 259 258 255 252 251 249 249 249 250 249 248 248 248 250 250 254 256 254 251 249 245 245 255 244 250 241 245 231 222
80 80 70 64 57 295 238 246 249 256 261 265 269 274 275 272 268 261 259 256 254 251 250 249 251 251 251 251 250 253 251 251 251 254 255 252 246 244 246 253 248 247 240 249 222
74 64 49 38 19 10 3 345 321 302 293 292 290 289 288 287 286 272 263 258 255 254 252 250 250 251 252 253 253 255 255 253 251 250 254 258 259 252 250 246 249 245 241 242 224
59 49 33 14 0 344 326 319 314 304 299 297 297 294 293 294 295 289 278 265 257 255 254 251 250 251 254 254 257 256 255 256 257 258 255 256 260 253 251 253 251 246 244 239 242
58 52 36 3 330 314 307 303 302 302 297 299 301 302 302 302 296 293 292 284 270 264 259 258 257 254 254 255 254 259 261 257 256 257 258 257 253 255 257 252 247 248 242 244 243
52 54 46 31 9 339 318 307 303 300 294 290 289 290 292 291 291 293 294 291 289 280 271 265 262 259 258 256 258 258 261 263 263 261 257 256 261 260 262 255 246 246 241 243 244
44 49 52 44 35 33 24 359 330 313 303 300 296 295 293 287 285 281 283 284 283 285 283 276 267 263 260 258 259 260 261 264 266 260 260 262 261 258 255 258 250 250 242 243 247
28 29 28 37 39 27 11 357 339 329 320 310 303 304 299 292 288 285 280 280 281 283 282 279 277 271 265 259 255 251 258 266 247 257 266 257 263 261 259 258 254 253 246 239 242
15 13 13 15 15 17 15 13 354 336 325 319 314 310 310 308 301 297 291 287 284 282 280 277 275 272 266 262 258 257 259 263 261 263 261 263 257 255 253 259 259 254 247 242 242
360 1 357 358 360 1 359 356 353 350 342 327 313 307 301 300 300 296 294 291 288 286 286 284 282 275 275 273 267 261 260 259 259 258 260 261 258 256 253 256 260 258 249 242 240
339 342 342 341 342 344 346 342 342 339 333 325 322 320 306 302 293 292 292 291 289 286 284 282 277 283 277 274 271 267 262 258 258 254 260 265 263 261 261 255 254 253 251 247 243
326 325 328 327 327 327 330 331 331 329 324 315 322 315 312 310 305 296 292 287 286 285 284 283 278 278 275 276 275 272 267 263 261 263 263 261 263 257 253 259 258 254 252 248 247
326 320 316 316 316 317 318 318 319 319 320 314 318 314 311 308 307 303 292 290 283 282 281 282 282 279 275 278 274 272 271 270 270 268 266 264 265 264 270 259 258 258 255 252 246
325 325 318 312 311 310 310 311 311 309 310 309 309 310 307 303 300 297 299 292 290 288 284 283 275 282 284 278 277 277 274 276 274 273 270 270 270 261 266 275 267 253 251 253 254
327 323 318 319 313 307 306 305 305 304 306 305 304 307 304 301 299 296 293 295 295 292 292 289 287 285 287 280 277 277 276 276 272 271 274 283 261 251 237 235 236 263 252 252 254
324 321 320 317 315 313 309 305 304 302 300 301 297 298 298 294 293 289 287 286 285 284 283 282 274 268 267 275 274 262 277 264 265 261 262 271 264 271 257 251 253 253 259 254 250
318 318 315 317 318 313 309 305 301 299 299 298 297 294 296 291 290 286 284 280 278 277 273 279 274 263 254 260 267 275 253 262 262 265 269 257 255 254 273 263 263 254 251 253 251
322 318 314 314 315 314 311 307 305 302 299 299 296 294 291 287 293 294 282 286 280 275 274 277 276 271 261 266 274 272 270 250 259 266 265 268 264 269 263 258 264 264 254 250 253
316 319 319 315 315 312 310 307 307 300 299 298 295 295 295 293 293 292 290 282 286 286 282 282 279 279 273 269 275 270 272 259 266 257 263 263 247 269 245 242 208 256 262 251 251
311 316 320 322 315 315 313 311 313 307 306 302 295 295 297 296 299 298 293 283 283 289 287 284 276 287 283 268 260 273 266 258 257 255 250 252 249 248 256 257 254 260 268 265 257
307 316 320 323 320 318 319 318 315 315 309 305 301 299 299 300 300 299 297 291 285 282 282 282 286 289 285 276 259 247 246 240 249 259 261 256 253 238 263 258 266 260 265 272 262
299 309 317 317 321 321 321 316 312 314 311 304 303 300 303 302 300 303 303 299 296 296 294 295 289 280 275 270 262 270 271 269 242 253 266 263 262 243 252 255 237 257 270 268 265
299 305 310 317 318 318 320 317 312 311 312 306 303 302 305 303 302 303 302 300 298 298 297 294 292 285 270 270 269 268 268 266 270 269 265 260 257 243 243 262 261 260 258 262 267
296 302 307 311 316 317 318 318 312 311 312 304 306 306 306 307 305 307 303 302 300 297 291 289 299 296 286 276 270 269 264 262 260 261 260 262 261 262 261 266 263 273 271 269 267
292 299 306 310 313 314 317 317 313 311 310 303 306 309 305 307 308 309 307 306 304 301 295 294 296 285 293 288 278 279 298 293 278 275 276 276 270 263 259 266 265 263 256 265 272
Height
5758 5760 5761 5763 5764 5766 5768 5770 5772 5773 5775 5777 5779 5780 5782 5783 5785 5786 5788 5790 5791 5793 5795 5797 5799 5801 5802 5804 5805 5808 5809 5812 5818 5821 5826 5826 5820 5822 5823 5824 5822 5835 5841 5838 5852
5760 5762 5763 5764 5765 5766 5767 5769 5770 5772 5773 5774 5776 5777 5778 5779 5779 5780 5782 5783 5785 5787 5788 5789 5791 5793 5795 5797 5798 5799 5801 5806 5812 5813 5814 5818 5819 5812 5814 5813 5818 5820 5832 5832 5838
5763 5764 5765 5766 5767 5767 5768 5769 5770 5771 5772 5773 5774 5774 5775 5775 5775 5776 5777 5777 5778 5780 5781 5783 5785 5787 5788 5790 5792 5793 5796 5799 5800 5802 5804 5806 5810 5810 5804 5805 5807 5816 5816 5816 5830
5765 5766 5767 5767 5768 5768 5769 5770 5770 5771 5771 5772 5772 5772 5772 5771 5772 5771 5771 5772 5773 5774 5776 5777 5778 5780 5781 5783 5785 5784 5787 5789 5791 5792 5792 5794 5795 5796 5799 5800 5797 5799 5812 5816 5820
5768 5769 5769 5769 5769 5769 5770 5770 5771 5771 5770 5770 5770 5770 5769 5768 5768 5767 5767 5767 5768 5769 5770 5771 5772 5773 5775 5776 5776 5777 5779 5780 5781 5781 5782 5782 5783 5787 5786 5789 5786 5794 5802 5808 5811
5771 5771 5770 5770 5770 5770 5770 5770 5770 5769 5769 5768 5768 5767 5766 5765 5764 5763 5763 5763 5763 5763 5764 5764 5765 5767 5768 5768 5769 5769 5768 5771 5772 5772 5774 5773 5773 5775 5781 5779 5780 5784 5791 5798 5800
5772 5771 5771 5770 5770 5769 5769 5768 5768 5767 5766 5766 5764 5763 5762 5762 5760 5759 5758 5758 5758 5757 5758 5758 5759 5759 5760 5761 5760 5761 5761 5762 5763 5762 5763 5763 5762 5765 5772 5768 5770 5769 5781 5785 5786
5775 5772 5771 5769 5768 5767 5766 5765 5765 5764 5763 5762 5760 5759 5758 5757 5756 5755 5754 5754 5753 5752 5752 5752 5752 5752 5752 5753 5753 5754 5753 5753 5755 5753 5753 5752 5755 5759 5758 5758 5760 5755 5771 5772 5780
5778 5775 5772 5770 5769 5766 5764 5763 5762 5760 5759 5757 5756 5754 5753 5752 5751 5750 5749 5749 5748 5747 5747 5746 5745 5745 5746 5746 5746 5746 5747 5746 5747 5742 5744 5744 5746 5749 5748 5746 5750 5750 5758 5764 5769
5778 5776 5774 5770 5768 5767 5764 5762 5760 5758 5755 5754 5752 5751 5748 5748 5746 5745 5744 5743 5742 5742 5742 5741 5740 5739 5739 5739 5740 5744 5743 5738 5738 5737 5733 5737 5737 5740 5740 5736 5739 5741 5746 5751 5755
5778 5776 5773 5771 5768 5766 5763 5761 5760 5757 5753 5751 5749 5747 5744 5743 5741 5740 5739 5738 5736 5736 5735 5734 5734 5733 5732 5731 5731 5730 5731 5729 5731 5728 5726 5726 5728 5729 5731 5727 5729 5732 5735 5740 5743
5777 5775 5773 5770 5767 5765 5762 5760 5757 5755 5751 5748 5745 5743 5741 5739 5738 5736 5734 5733 5732 5730 5729 5729 5728 5726 5725 5725 5723 5722 5722 5721 5720 5719 5717 5716 5718 5720 5721 5720 5721 5723 5726 5728 5730
5775 5772 5770 5768 5765 5763 5760 5757 5754 5752 5749 5746 5743 5740 5738 5736 5734 5732 5730 5728 5726 5725 5723 5722 5722 5719 5718 5717 5716 5715 5713 5712 5711 5709 5707 5707 5709 5709 5712 5710 5710 5713 5716 5718 5718
5773 5770 5767 5765 5763 5759 5757 5754 5752 5748 5745 5744 5740 5737 5734 5731 5730 5727 5725 5724 5721 5720 5717 5717 5714 5712 5711 5710 5708 5707 5705 5703 5701 5701 5700 5701 5696 5700 5700 5699 5699 5702 5704 5708 5709
5769 5767 5764 5760 5758 5755 5753 5749 5747 5744 5742 5739 5736 5733 5729 5727 5724 5722 5720 5718 5716 5714 5712 5711 5706 5705 5704 5702 5700 5698 5696 5693 5693 5692 5690 5693 5688 5692 5692 5691 5688 5690 5693 5696 5699
5765 5762 5759 5756 5753 5751 5747 5744 5742 5741 5737 5735 5730 5727 5724 5721 5719 5715 5713 5712 5709 5707 5704 5704 5701 5697 5696 5693 5690 5689 5687 5685 5683 5683 5680 5684 5684 5685 5687 5682 5677 5679 5682 5685 5688
5760 5757 5754 5752 5749 5746 5743 5740 5738 5735 5732 5729 5725 5723 5719 5715 5712 5709 5707 5704 5702 5698 5696 5694 5693 5691 5688 5684 5683 5679 5678 5678 5681 5681 5678 5682 5676 5679 5675 5672 5672 5670 5673 5676 5678
5755 5752 5750 5747 5744 5741 5738 5735 5732 5729 5725 5722 5719 5716 5713 5709 5706 5703 5700 5698 5695 5692 5688 5687 5687 5691 5682 5673 5676 5678 5674 5674 5670 5671 5671 5669 5664 5669 5666 5665 5660 5665 5666 5667 5670
5750 5747 5744 5741 5738 5735 5732 5728 5726 5722 5720 5715 5713 5709 5706 5702 5700 5694 5691 5689 5688 5685 5682 5677 5676 5679 5670 5668 5667 5668 5666 5668 5658 5658 5659 5661 5661 5662 5652 5656 5654 5656 5657 5658 5660
5744 5741 5738 5735 5731 5728 5726 5723 5718 5716 5712 5708 5705 5702 5698 5694 5688 5686 5683 5680 5676 5675 5671 5669 5660 5664 5664 5658 5655 5653 5657 5655 5651 5646 5649 5651 5653 5650 5648 5640 5644 5647 5648 5649 5649
5738 5735 5732 5729 5725 5722 5719 5715 5712 5707 5704 5701 5697 5693 5689 5685 5681 5678 5675 5672 5665 5662 5659 5655 5651 5651 5652 5649 5647 5647 5643 5642 5642 5641 5638 5641 5644 5631 5634 5634 5636 5636 5638 5640 5641
5732 5729 5725 5722 5719 5714 5710 5706 5706 5700 5695 5692 5689 5685 5681 5676 5672 5670 5666 5663 5658 5650 5647 5646 5638 5637 5638 5639 5637 5633 5633 5632 5630 5629 5630 5629 5629 5631 5628 5631 5630 5631 5630 5630 5630
5725 5722 5719 5716 5713 5708 5703 5699 5696 5693 5687 5684 5679 5675 5672 5668 5662 5662 5658 5655 5649 5645 5639 5632 5628 5624 5623 5627 5626 5618 5619 5620 5622 5620 5616 5618 5618 5626 5619 5621 5621 5624 5623 5621 5619
5719 5717 5713 5710 5706 5702 5698 5693 5687 5684 5682 5676 5672 5668 5664 5660 5656 5651 5648 5644 5636 5630 5623 5620 5618 5615 5612 5612 5613 5608 5607 5610 5609 5607 5608 5608 5610 5614 5610 5615 5613 5616 5616 5613 5610
5711 5710 5706 5702 5697 5695 5691 5685 5680 5675 5672 5667 5666 5660 5657 5652 5647 5643 5638 5633 5627 5621 5611 5608 5604 5602 5601 5601 5602 5602 5601 5604 5600 5600 5599 5601 5600 5602 5604 5604 5606 5606 5606 5605 5601
5703 5701 5699 5695 5690 5686 5682 5680 5673 5669 5664 5660 5656 5653 5648 5644 5639 5634 5629 5624 5617 5611 5604 5600 5596 5594 5594 5594 5593 5592 5593 5594 5593 5593 5590 5592 5591 5596 5598 5598 5598 5597 5597 5594 5593
5693 5690 5689 5687 5683 5679 5675 5670 5665 5660 5659 5653 5650 5646 5640 5636 5631 5626 5619 5613 5606 5601 5597 5595 5593 5592 5591 5590 5589 5587 5588 5587 5587 5586 5585 5584 5586 5589 5591 5590 5590 5584 5587 5585 5583